KDNN

Details ICAO KDNN (DNN)
Name DALTON MUNI
Region United States
Timezone America/New_York (UTC-4.0)
Plans Departing 14
Arriving 9
Stats Elevation 710 ft / 216 m (AMSL)
Location 34.722936° -84.870242°
Runways 1
Magnetic Variation 4.973° W
Sunrise 2018-05-21 10:33:53 UTC / 2018-05-21 06:33:53 Local
Sunset 2018-05-22 00:41:08 UTC / 2018-05-21 20:41:08 Local
Advertisement - Login to hide

Runways

ID Width Length Bearing (true) Bearing (mag) Surface Threshold Offset Overrun Length
14 100 ft / 30 m 5,501 ft / 1,677 m 137.13° 142.10° Asphalt 0 ft / 0 m 0 ft / 0 m
32 100 ft / 30 m 5,501 ft / 1,677 m 317.13° 322.10° Asphalt 0 ft / 0 m 0 ft / 0 m

Approach Navaids

Runway Type Ident Frequency Range Bearing (true) Bearing (mag) Slope Elevation
14 Localiser IDNN 110.90 MHz 18 nm / 33 km 137.39° 142.36° - 710 ft / 216 m (AMSL)
14 Glidescope IDNN 110.90 MHz 10 nm / 19 km 137.13° 142.10° 3.00° 704 ft / 215 m (AMSL)

Map

Weather


0- 5 10 15 20 25 30 35+ Temperature / ° C

Clouds and Precipitation
Forecast for 2018-05-21 18:00 UTC. Updated 5 minutes ago

Ground ~20,000 ft ~40,000 ft Winds

METAR

KDNN 211715Z AUTO 13007KT 10SM SCT045 27/16 A3017 RMK AO2

TAF

Not found

Frequencies

Recorded 127.65 MHz AWOS 3
Clearance 120.25 MHz CLNC DEL
Unicom 122.97 MHz CTAF/UNICOM
Approach 125.10 MHz CHATTANOOGA APP/DEP
Warning: Do not use this data for real-world aviation or navigation. No guarantee of current accuracy is given.